EW9904 Weather Reports


time (UTC)temp
C
wind
direction
speed
KPH
gust
KPH
rain 1hr
cm
rain 24hr
cm
rain mn
cm
humidity
%
barometer
mb
20211017145002 16 261 14.5 27.4 0.00 0.89 0.00 72 1013.1
20211017144500 15 328 14.5 27.4 0.00 0.89 0.00 69 1013.0
20211017144001 15 315 12.9 24.1 0.00 0.89 0.00 69 1013.0
20211017143459 15 322 11.3 30.6 0.00 0.89 0.00 71 1013.1
20211017143002 15 298 11.3 30.6 0.00 0.89 0.00 70 1013.1
20211017142459 15 344 11.3 24.1 0.00 0.89 0.00 73 1013.0
20211017142010 15 331 11.3 24.1 0.00 0.89 0.00 71 1013.1
20211017141459 15 336 11.3 22.5 0.00 0.89 0.00 78 1013.1
20211017141004 15 288 9.7 24.1 0.00 0.89 0.00 76 1013.2
20211017140459 15 327 8.0 19.3 0.00 0.89 0.00 77 1013.2
20211017140001 15 250 8.0 17.7 0.00 0.89 0.00 76 1013.2
20211017135459 14 284 9.7 19.3 0.00 0.89 0.00 76 1013.2
20211017135001 14 306 9.7 20.9 0.00 0.89 0.00 78 1013.2
20211017134501 14 329 9.7 20.9 0.00 0.89 0.00 80 1013.3
20211017134000 13 299 9.7 25.7 0.00 0.89 0.00 80 1013.5
20211017133501 13 271 8.0 25.7 0.00 0.89 0.00 79 1013.5
20211017133001 13 315 6.4 16.1 0.00 0.89 0.00 81 1013.6
20211017132505 13 288 4.8 16.1 0.00 0.89 0.00 82 1013.5
20211017132001 13 301 6.4 20.9 0.00 0.89 0.00 83 1013.6
20211017131459 13 275 6.4 20.9 0.00 0.89 0.00 81 1013.6
20211017131003 13 214 6.4 16.1 0.00 0.89 0.00 85 1013.6
20211017130459 12 306 4.8 22.5 0.00 0.89 0.00 87 1013.5
20211017130002 12 338 4.8 22.5 0.00 0.89 0.00 86 1013.4
20211017125459 12 296 3.2 14.5 0.00 0.89 0.00 88 1013.4
20211017125002 12 276 3.2 14.5 0.00 0.89 0.00 87 1013.4
20211017124459 11 295 3.2 12.9 0.00 0.89 0.00 89 1013.4
20211017124000 11 301 1.6 12.9 0.00 0.89 0.00 88 1013.3
20211017123459 11 254 3.2 14.5 0.00 0.89 0.00 89 1013.3
20211017123002 11 325 3.2 14.5 0.00 0.89 0.00 90 1013.2
20211017122459 11 300 3.2 12.9 0.00 0.89 0.00 91 1013.1
20211017122002 11 242 3.2 12.9 0.00 0.89 0.00 91 1013.1
20211017121500 10 311 3.2 9.7 0.00 0.89 0.00 91 1013.1
20211017121002 10 294 3.2 9.7 0.00 0.89 0.00 91 1013.0
20211017120500 10 273 3.2 14.5 0.00 0.89 0.00 91 1013.0
20211017120008 10 256 3.2 12.9 0.00 0.89 0.00 91 1013.0
20211017115500 10 283 1.6 12.9 0.00 0.89 0.00 91 1012.9
20211017115000 10 267 1.6 8.0 0.00 0.89 0.00 92 1012.8
20211017114459 10 302 1.6 4.8 0.00 0.89 0.00 92 1012.8
20211017114002 10 302 3.2 8.0 0.00 0.89 0.00 92 1012.7
20211017113501 10 271 3.2 8.0 0.00 0.89 0.00 92 1012.7
20211017113001 10 314 1.6 8.0 0.00 0.89 0.00 92 1012.7
20211017112459 10 297 1.6 6.4 0.00 0.89 0.00 92 1012.7
20211017112002 10 278 1.6 6.4 0.00 0.89 0.00 92 1012.6
20211017111500 10 311 1.6 9.7 0.00 0.89 0.00 92 1012.6
20211017111001 10 266 1.6 6.4 0.00 0.89 0.00 92 1012.6
20211017110459 10 269 1.6 4.8 0.00 0.89 0.00 92 1012.5
20211017110002 10 268 1.6 4.8 0.00 0.89 0.00 92 1012.5
20211017105500 10 297 1.6 6.4 0.00 0.89 0.00 92 1012.4
20211017105003 10 294 1.6 6.4 0.00 0.89 0.00 92 1012.4
20211017104459 10 309 1.6 4.8 0.00 0.89 0.00 92 1012.3
20211017104001 10 313 0.0 4.8 0.00 0.89 0.00 91 1012.3
20211017103501 10 313 0.0 3.2 0.00 0.89 0.00 91 1012.4
20211017103001 10 313 1.6 6.4 0.00 0.89 0.00 90 1012.4
20211017102500 10 312 1.6 6.4 0.00 0.89 0.00 90 1012.3
20211017102001 10 304 1.6 4.8 0.00 0.89 0.00 90 1012.3
20211017101501 10 308 1.6 9.7 0.00 0.89 0.00 89 1012.3
20211017101002 10 311 1.6 4.8 0.00 0.89 0.00 90 1012.2
20211017100459 10 306 3.2 8.0 0.00 0.89 0.00 90 1012.1
20211017100005 10 302 1.6 14.5 0.00 0.89 0.00 90 1012.1
20211017095459 10 288 1.6 14.5 0.00 0.89 0.00 89 1012.1
20211017095002 11 303 1.6 12.9 0.00 0.89 0.00 89 1012.1
20211017094501 10 333 1.6 6.4 0.00 0.89 0.00 90 1012.0
20211017094005 10 333 1.6 6.4 0.00 0.89 0.00 90 1012.0
20211017093459 10 277 3.2 9.7 0.00 0.89 0.00 91 1011.9
20211017093005 10 322 3.2 9.7 0.00 0.89 0.00 91 1012.0
20211017092501 10 325 1.6 14.5 0.00 0.89 0.00 91 1011.9
20211017092001 10 306 1.6 14.5 0.00 0.89 0.00 91 1011.9
20211017091501 11 317 1.6 6.4 0.00 0.89 0.00 90 1011.9
20211017091004 11 276 1.6 6.4 0.00 0.89 0.00 90 1011.9
20211017090500 11 325 3.2 9.7 0.00 0.89 0.00 90 1011.9
20211017090003 11 348 3.2 9.7 0.00 0.89 0.00 90 1011.8
20211017085459 11 317 3.2 8.0 0.00 0.89 0.00 91 1011.7
20211017085008 11 315 3.2 14.5 0.00 0.89 0.00 91 1011.7
20211017084500 11 335 3.2 14.5 0.00 0.89 0.00 91 1011.6
20211017084005 11 321 3.2 8.0 0.00 0.89 0.00 91 1011.7
20211017083500 11 304 3.2 17.7 0.00 0.89 0.00 91 1011.7
20211017083001 11 317 3.2 17.7 0.00 0.89 0.00 91 1011.8
20211017082459 11 316 3.2 12.9 0.00 0.89 0.00 92 1011.8
20211017082001 11 291 3.2 8.0 0.00 0.89 0.00 92 1011.8
20211017081500 11 264 1.6 9.7 0.00 0.89 0.00 93 1011.8
20211017081002 11 328 1.6 8.0 0.00 0.89 0.00 93 1011.8
20211017080459 11 271 1.6 9.7 0.00 0.89 0.00 94 1011.7
20211017080003 11 321 1.6 6.4 0.00 0.89 0.00 94 1011.8
20211017075459 11 319 1.6 6.4 0.00 0.89 0.00 94 1011.7
20211017075001 11 306 1.6 8.0 0.00 0.89 0.00 94 1011.8
20211017074500 11 302 1.6 8.0 0.00 0.89 0.00 94 1011.7
20211017074002 11 319 1.6 3.2 0.00 0.89 0.00 94 1011.7
20211017073459 11 319 1.6 6.4 0.00 0.89 0.00 94 1011.7
20211017073004 11 319 1.6 6.4 0.00 0.89 0.00 94 1011.7
20211017072459 11 326 1.6 9.7 0.00 0.89 0.00 94 1011.6
20211017072004 11 299 1.6 9.7 0.00 0.89 0.00 94 1011.6
20211017071500 11 312 1.6 6.4 0.00 0.89 0.00 94 1011.6
20211017071005 11 312 1.6 6.4 0.00 0.89 0.00 94 1011.5
20211017070523 11 313 1.6 3.2 0.00 0.89 0.00 94 1011.6
20211017065503 11 312 0.0 4.8 0.00 0.89 0.00 93 1011.6
20211017065009 11 314 0.0 1.6 0.00 0.89 0.00 93 1011.6
20211017064510 11 314 1.6 3.2 0.00 0.89 0.00 93 1011.6
20211017064010 11 314 1.6 4.8 0.00 0.89 0.00 93 1011.5
20211017063503 11 315 0.0 3.2 0.00 0.89 0.00 92 1011.5
20211017063014 11 315 0.0 3.2 0.00 0.89 0.00 92 1011.5
20211017062507 11 315 1.6 4.8 0.00 0.89 0.00 92 1011.5
20211017062012 11 315 1.6 4.8 0.00 0.89 0.00 91 1011.5
20211017061510 11 328 1.6 4.8 0.00 0.89 0.00 91 1011.6
20211017061011 11 326 1.6 4.8 0.00 0.89 0.00 90 1011.6
20211017060506 11 313 1.6 6.4 0.00 0.89 0.00 90 1011.6
20211017060026 11 319 1.6 8.0 0.00 0.89 0.00 90 1011.6
20211017055504 11 327 1.6 8.0 0.00 0.89 0.00 90 1011.6
20211017055005 11 308 1.6 6.4 0.00 0.89 0.00 89 1011.7
20211017054503 11 319 3.2 8.0 0.00 0.89 0.00 89 1011.7
20211017054012 12 315 3.2 8.0 0.00 0.89 0.00 89 1011.5
20211017053508 12 290 1.6 8.0 0.00 0.89 0.00 88 1011.6
20211017053019 12 306 1.6 16.1 0.00 0.89 0.00 88 1011.6
20211017052509 12 309 3.2 16.1 0.00 0.89 0.00 89 1011.6
20211017052009 12 335 3.2 12.9 0.00 0.89 0.00 88 1011.6
20211017051510 12 320 4.8 14.5 0.00 0.89 0.00 88 1011.7
20211017051005 12 271 4.8 17.7 0.00 0.89 0.00 88 1011.5
20211017050503 12 317 3.2 12.9 0.00 0.89 0.00 88 1011.5
20211017050018 12 294 4.8 17.7 0.00 0.89 0.00 89 1011.5
20211017045506 12 327 6.4 17.7 0.00 0.89 0.00 88 1011.5
20211017045011 13 335 8.0 20.9 0.00 0.89 0.00 88 1011.6
20211017044505 13 334 8.0 20.9 0.00 0.89 0.00 87 1011.5
20211017044012 13 319 6.4 20.9 0.00 0.89 0.00 88 1011.3
20211017043508 13 348 6.4 20.9 0.00 0.89 0.00 88 1011.3
20211017043018 13 280 6.4 16.1 0.00 0.89 0.00 88 1011.4
20211017042510 13 306 11.3 20.9 0.00 0.89 0.00 87 1011.2
20211017042004 13 325 11.3 20.9 0.00 0.89 0.00 88 1011.3
20211017041511 13 345 9.7 19.3 0.00 0.89 0.00 89 1011.2
20211017041007 13 313 8.0 20.9 0.00 0.89 0.00 91 1011.2
20211017040505 13 317 4.8 20.9 0.00 0.89 0.00 93 1011.1
20211017040025 13 329 4.8 12.9 0.00 0.89 0.00 92 1011.2
20211017035507 13 297 4.8 17.7 0.00 0.89 0.89 92 1011.2
20211017035004 13 272 4.8 17.7 0.00 0.89 0.89 91 1011.2
20211017034504 14 319 6.4 17.7 0.00 0.89 0.89 90 1011.1
20211017034005 15 273 9.7 22.5 0.00 0.89 0.89 87 1011.3
20211017033506 15 330 9.7 27.4 0.00 0.89 0.89 87 1011.1
20211017033004 14 350 8.0 27.4 0.00 0.89 0.89 92 1011.2
20211017032505 15 328 8.0 19.3 0.00 0.89 0.89 92 1011.2
20211017032003 15 295 8.0 22.5 0.00 0.89 0.89 93 1011.1
20211017031501 15 296 11.3 24.1 0.00 0.89 0.89 93 1010.9
20211017031007 15 360 11.3 24.1 0.00 0.89 0.89 94 1010.6
20211017030504 15 323 6.4 22.5 0.00 0.89 0.89 95 1010.5
20211017030017 15 278 4.8 22.5 0.00 0.89 0.89 95 1010.6
20211017025502 15 324 4.8 14.5 0.00 0.89 0.89 95 1010.5
20211017025005 15 311 4.8 14.5 0.00 0.89 0.89 95 1010.5
20211017024509 15 334 4.8 14.5 0.00 0.89 0.89 95 1010.3
20211017024004 15 309 4.8 14.5 0.00 0.89 0.89 95 1010.3
20211017023505 15 317 4.8 9.7 0.03 0.89 0.89 96 1010.4
20211017023008 15 339 3.2 9.7 0.03 0.89 0.89 95 1010.3
20211017022505 15 320 3.2 9.7 0.03 0.89 0.89 95 1010.5
20211017022003 15 270 3.2 9.7 0.05 0.89 0.89 95 1010.4
20211017021501 15 335 4.8 9.7 0.08 0.89 0.89 94 1010.3
20211017021010 15 333 4.8 12.9 0.10 0.89 0.89 94 1010.4
20211017020503 15 329 6.4 14.5 0.15 0.89 0.89 94 1010.2
20211017020019 15 329 6.4 14.5 0.15 0.89 0.89 94 1010.2
20211017015504 15 351 6.4 17.7 0.18 0.89 0.89 94 1010.2
20211017015005 15 5 8.0 17.7 0.20 0.89 0.89 94 1010.1
20211017014501 15 300 8.0 19.3 0.23 0.89 0.89 94 1010.1
20211017014007 15 344 9.7 20.9 0.25 0.89 0.89 94 1010.1
20211017013505 15 331 11.3 20.9 0.23 0.86 0.86 94 1010.0
20211017013017 15 350 12.9 29.0 0.23 0.86 0.86 94 1010.2
20211017012504 15 304 11.3 29.0 0.25 0.86 0.86 95 1010.2
20211017012005 15 300 9.7 41.8 0.25 0.84 0.84 95 1009.9
20211017011501 16 345 8.0 41.8 0.25 0.81 0.81 96 1009.9
20211017011011 16 5 4.8 14.5 0.23 0.76 0.76 96 1009.8
20211017010503 16 323 1.6 6.4 0.20 0.74 0.74 96 1009.8
20211017010008 16 324 1.6 6.4 0.23 0.74 0.74 96 1009.7
20211017005503 16 323 3.2 6.4 0.23 0.71 0.71 96 1009.2
20211017005007 16 325 3.2 9.7 0.23 0.69 0.69 96 1009.2
20211017004508 16 323 1.6 9.7 0.23 0.66 0.66 96 1009.3
20211017004009 16 360 1.6 8.0 0.25 0.64 0.64 96 1009.1
20211017003501 16 9 3.2 6.4 0.28 0.64 0.64 95 1009.6
20211017003009 16 9 3.2 8.0 0.36 0.64 0.64 95 1009.2
20211017002504 16 336 3.2 9.7 0.38 0.61 0.61 95 1009.0
20211017002008 16 333 4.8 12.9 0.41 0.58 0.58 94 1009.2
20211017001505 16 329 6.4 17.7 0.43 0.56 0.56 94 1009.4
20211017001002 16 327 6.4 17.7 0.43 0.53 0.53 94 1009.6
20211017000507 16 320 8.0 20.9 0.48 0.53 0.53 94 1009.4
20211017000013 16 333 9.7 20.9 0.51 0.51 0.51 94 1008.9
20211016235501 16 344 6.4 17.7 0.48 0.48 0.48 94 1009.4
20211016235006 16 323 6.4 17.7 0.46 0.46 0.46 94 1009.3
20211016234508 16 328 4.8 12.9 0.41 0.41 0.41 94 1009.3
20211016234004 16 327 4.8 12.9 0.38 0.38 0.38 93 1009.2
20211016233503 16 329 3.2 12.9 0.36 0.36 0.36 93 1008.9
20211016233025 16 339 3.2 9.7 0.28 0.28 0.28 93 1009.0
20211016232502 16 321 3.2 8.0 0.23 0.23 0.23 92 1008.8
20211016232004 16 289 3.2 8.0 0.15 0.15 0.15 91 1009.1
20211016231507 17 288 6.4 20.9 0.13 0.13 0.13 89 1008.5
20211016231003 17 5 8.0 20.9 0.10 0.10 0.10 87 1008.2
20211016230501 17 315 6.4 19.3 0.05 0.05 0.05 85 1008.0
20211016230004 18 260 9.7 19.3 0.00 0.00 0.00 83 1007.9
20211016225504 18 311 14.5 24.1 0.00 0.00 0.00 80 1007.7
20211016225008 19 30 12.9 24.1 0.00 0.00 0.00 77 1007.7
20211016224502 20 349 8.0 20.9 0.00 0.00 0.00 75 1007.7
20211016224002 20 329 9.7 22.5 0.00 0.00 0.00 73 1007.5
20211016223501 20 355 9.7 29.0 0.00 0.00 0.00 70 1007.0
20211016223003 20 319 8.0 16.1 0.00 0.00 0.00 70 1006.8
20211016222504 20 350 8.0 17.7 0.00 0.00 0.00 70 1006.9
20211016222009 20 355 9.7 22.5 0.00 0.00 0.00 70 1006.7
20211016221501 20 333 12.9 33.8 0.00 0.00 0.00 69 1006.7
20211016221009 20 311 14.5 33.8 0.00 0.00 0.00 68 1006.8
20211016220502 20 360 14.5 33.8 0.00 0.00 0.00 67 1006.4
20211016220011 20 266 17.7 37.0 0.00 0.00 0.00 66 1006.2
20211016215501 21 15 19.3 37.0 0.00 0.00 0.00 65 1006.1
20211016215009 21 323 19.3 33.8 0.00 0.00 0.00 64 1006.0
20211016214502 21 324 20.9 40.2 0.00 0.00 0.00 63 1005.8
20211016214004 21 315 19.3 40.2 0.00 0.00 0.00 64 1006.0
20211016213501 21 331 19.3 41.8 0.00 0.00 0.00 63 1005.8
20211016213010 22 301 16.1 38.6 0.00 0.00 0.00 66 1005.6
20211016212504 23 307 14.5 32.2 0.00 0.00 0.00 70 1005.4
20211016212010 23 287 9.7 35.4 0.00 0.00 0.00 69 1005.2
20211016211502 25 281 3.2 27.4 0.00 0.00 0.00 78 1004.8
20211016211004 25 241 3.2 8.0 0.00 0.00 0.00 78 1004.1
20211016210503 25 209 4.8 11.3 0.00 0.00 0.00 77 1004.0
20211016210005 25 204 3.2 11.3 0.00 0.00 0.00 77 1004.0
20211016205501 25 193 4.8 11.3 0.00 0.00 0.00 76 1004.0
20211016205005 25 193 4.8 16.1 0.00 0.00 0.00 77 1003.9
20211016204502 25 224 4.8 16.1 0.00 0.00 0.00 76 1003.8
20211016204008 25 254 6.4 20.9 0.00 0.00 0.00 76 1003.8
20211016203501 25 238 4.8 20.9 0.00 0.00 0.00 75 1003.9
20211016203033 26 189 6.4 16.1 0.00 0.00 0.00 75 1004.0
20211016202503 26 223 8.0 19.3 0.00 0.00 0.00 74 1003.9
20211016202002 26 183 6.4 19.3 0.00 0.00 0.00 74 1003.9
20211016201508 26 189 6.4 16.1 0.00 0.00 0.00 72 1004.0
20211016201008 26 205 6.4 16.1 0.00 0.00 0.00 71 1003.9
20211016200502 26 244 6.4 16.1 0.00 0.00 0.00 72 1003.9
20211016200013 26 235 6.4 14.5 0.00 0.00 0.00 71 1004.0
20211016195504 26 254 4.8 14.5 0.00 0.00 0.00 69 1003.9
20211016195004 26 217 4.8 16.1 0.00 0.00 0.00 70 1003.9
20211016194512 26 248 4.8 16.1 0.00 0.00 0.00 68 1003.9
20211016194008 27 202 6.4 14.5 0.00 0.00 0.00 66 1003.9
20211016193502 27 244 4.8 14.5 0.00 0.00 0.00 63 1004.0
20211016193009 28 275 6.4 33.8 0.00 0.00 0.00 60 1004.0
20211016192501 28 192 6.4 32.2 0.00 0.00 0.00 60 1004.0
20211016192007 28 240 6.4 19.3 0.00 0.00 0.00 59 1003.9
20211016191501 28 316 6.4 19.3 0.00 0.00 0.00 60 1003.9
20211016191010 28 37 6.4 20.9 0.00 0.00 0.00 58 1003.9
20211016190503 28 139 4.8 20.9 0.00 0.00 0.00 59 1003.9
20211016190022 28 315 6.4 20.9 0.00 0.00 0.00 60 1003.9
20211016185503 28 195 8.0 25.7 0.00 0.00 0.00 60 1003.9
20211016185009 28 261 8.0 19.3 0.00 0.00 0.00 60 1003.8
20211016184512 28 184 6.4 17.7 0.00 0.00 0.00 61 1004.0
20211016184005 28 265 6.4 16.1 0.00 0.00 0.00 59 1004.1
20211016183502 28 230 8.0 24.1 0.00 0.00 0.00 60 1004.2
20211016183003 28 235 9.7 27.4 0.00 0.00 0.00 58 1004.3
20211016182504 28 189 8.0 27.4 0.00 0.00 0.00 60 1004.4
20211016182007 28 207 6.4 20.9 0.00 0.00 0.00 61 1004.5
20211016181501 28 252 6.4 16.1 0.00 0.00 0.00 61 1004.5
20211016181007 28 258 6.4 16.1 0.00 0.00 0.00 60 1004.6
20211016180501 28 201 4.8 16.1 0.00 0.00 0.00 61 1004.7
20211016180012 28 258 4.8 14.5 0.00 0.00 0.00 63 1004.8
20211016175501 28 5 4.8 14.5 0.00 0.00 0.00 62 1004.8
20211016175010 28 213 8.0 32.2 0.00 0.00 0.00 66 1004.9
20211016174501 27 210 9.7 33.8 0.00 0.00 0.00 61 1005.0
20211016174008 27 184 9.7 27.4 0.00 0.00 0.00 61 1005.0
20211016173503 27 242 9.7 22.5 0.00 0.00 0.00 63 1005.2
20211016173003 27 207 8.0 22.5 0.00 0.00 0.00 64 1005.4
20211016172501 27 213 6.4 20.9 0.00 0.00 0.00 64 1005.5
20211016172011 27 217 6.4 17.7 0.00 0.00 0.00 63 1005.7
20211016171507 27 179 4.8 16.1 0.00 0.00 0.00 65 1005.7
20211016171004 27 256 8.0 22.5 0.00 0.00 0.00 66 1006.0
20211016170502 27 263 9.7 22.5 0.00 0.00 0.00 64 1006.1
20211016170004 27 204 8.0 22.5 0.00 0.00 0.00 63 1006.2
20211016165501 27 239 8.0 22.5 0.00 0.00 0.00 64 1006.5
20211016165003 27 195 8.0 22.5 0.00 0.00 0.00 65 1006.6
20211016164503 27 219 6.4 17.7 0.00 0.00 0.00 64 1006.6
20211016164005 27 219 6.4 22.5 0.00 0.00 0.00 68 1006.8
20211016163501 27 227 8.0 22.5 0.00 0.00 0.00 67 1006.9
20211016163004 27 173 8.0 17.7 0.00 0.00 0.00 65 1007.0
20211016162502 27 171 8.0 19.3 0.00 0.00 0.00 67 1007.1
20211016162011 27 338 9.7 24.1 0.00 0.00 0.00 69 1007.2
20211016161503 26 171 9.7 24.1 0.00 0.00 0.00 65 1007.2
20211016161008 26 141 6.4 24.1 0.00 0.00 0.00 66 1007.4
20211016160502 26 228 6.4 17.7 0.00 0.00 0.00 67 1007.5
20211016160012 26 179 6.4 19.3 0.00 0.00 0.00 70 1007.7
20211016155502 26 221 8.0 19.3 0.00 0.00 0.00 69 1007.9
20211016155003 26 164 8.0 19.3 0.00 0.00 0.00 69 1007.9
20211016154505 26 205 6.4 16.1 0.00 0.00 0.00 70 1008.1
20211016154009 26 171 6.4 16.1 0.00 0.00 0.00 70 1008.2
20211016153504 26 200 6.4 14.5 0.00 0.00 0.00 72 1008.3
20211016153011 26 279 6.4 14.5 0.00 0.00 0.00 71 1008.3
20211016152501 26 207 6.4 30.6 0.00 0.00 0.00 73 1008.4
20211016152002 25 200 8.0 29.0 0.00 0.00 0.00 72 1008.4
20211016151459 25 175 6.4 24.1 0.00 0.00 0.00 75 1008.4
20211016151000 25 207 6.4 24.1 0.00 0.00 0.00 75 1008.5
20211016150459 25 202 6.4 19.3 0.00 0.00 0.00 74 1008.4
20211016150000 25 182 6.4 17.7 0.00 0.00 0.00 75 1008.5
20211016145500 25 242 6.4 17.7 0.00 0.00 0.00 76 1008.6